Stations météo

Publicité
Pau, France (7610): Température de l'air & dewpoint: 11.12.2017 03:00:00 - 17.12.2017 03:00:00 (CET)Pau, France (7610): Température de l'air 5cm: 11.12.2017 03:00:00 - 17.12.2017 03:00:00 (CET)Pau, France (7610): Température de l'air -20cm & Température de l'air -100cm: 11.12.2017 03:00:00 - 17.12.2017 03:00:00 (CET)Pau, France (7610): Vitesse du vent & gusts: 11.12.2017 03:00:00 - 17.12.2017 03:00:00 (CET)Pau, France (7610): Direction du vent: 11.12.2017 03:00:00 - 17.12.2017 03:00:00 (CET)Pau, France (7610): reduced air pressure: 11.12.2017 03:00:00 - 17.12.2017 03:00:00 (CET)Pau, France (7610): visibility: 11.12.2017 03:00:00 - 17.12.2017 03:00:00 (CET)Pau, France (7610): Ensoleillement: 11.12.2017 03:00:00 - 17.12.2017 03:00:00 (CET)Pau, France (7610): Quantités de précipitations: 11.12.2017 03:00:00 - 17.12.2017 03:00:00 (CET)
Date & Time tt [°C] td [°C] tt 5cm [°C] tt -20cm [°C] tt -100cm [°C] ff [km/h] ff [knt] fx [km/h] fx [knt] dd ppp [hPa] vv [km] sd [min] rr [mm]
17.12.2017 03:00:00 0,0 -0,3 -3,6 9,1 11,0 4 2 6 3 ESE 1030,4 1,4 0 0,0
17.12.2017 02:00:00 0,1 -0,3 -2,8 9,1 11,0 4 2 9 5 E 1030,1 3,7 0 0,0
17.12.2017 01:00:00 0,9 0,5 -1,7 9,2 11,0 7 4 9 5 SE 1030,0 2,9 0 0,0
17.12.2017 00:00:00 0,8 0,4 -2,1 9,3 11,0 5 3 6 3 SE 1030,2 2,4 0 0,0
16.12.2017 23:00:00 1,2 0,6 -1,8 9,3 11,0 2 1 5 3 SE 1029,5 4,2 0 0,0
16.12.2017 22:00:00 2,8 2,2 -0,6 9,4 11,0 4 2 5 3 SW 1028,7 13 0 0,0
16.12.2017 21:00:00 3,3 2,4 1,3 9,4 11,0 0 0 10 5 N 1028,5 13 0 0,0
16.12.2017 20:00:00 3,8 2,8 0,5 9,4 11,0 5 3 11 6 W 1027,5 47 0 0,0
16.12.2017 19:00:00 3,9 2,4 1,2 9,4 11,0 3 2 8 4 W 1026,7 54 0 0,0
16.12.2017 18:00:00 4,0 1,7 1,2 9,4 11,0 8 4 16 9 WNW 1025,6 55 0 0,0
16.12.2017 17:00:00 5,9 2,5 4,8 9,3 11,0 4 2 16 9 NW 1024,6 60 0 0,0
16.12.2017 16:00:00 7,4 3,3 7,7 9,3 11,0 11 6 17 9 NNW 1023,5 49 0 0,0
16.12.2017 15:00:00 7,6 1,9 7,8 9,3 11,0 8 4 16 9 WNW 1022,9 60 0 0,0
16.12.2017 14:00:00 8,1 1,2 8,6 9,3 11,0 11 6 16 8 W 1022,7 60 33 0,0
16.12.2017 13:00:00 8,1 3,5 9,3 9,4 11,0 8 4 15 8 WNW 1022,4 10 44 0,0
16.12.2017 12:00:00 7,6 5,6 8,2 9,6 11,0 4 2 10 6 NW 1022,3 53 56 0,0
16.12.2017 11:00:00 6,2 5,3 5,8 9,6 11,0 4 2 10 5 SSW 1022,0 31 35 0,0
16.12.2017 10:00:00 4,3 4,0 0,3 9,6 11,0 3 2 5 3 S 1021,3 0,6 60 0,0
16.12.2017 09:00:00 1,5 1,1 -0,7 9,6 11,0 0 0 4 2 N 1020,9 0,6 5 0,0
16.12.2017 08:00:00 2,4 1,8 -0,3 9,6 11,0 0 0 6 3 N 1019,7 2,2 0 0,0
16.12.2017 07:00:00 4,0 3,4 1,5 9,6 11,0 2 1 5 3 SSE 1018,5 10 0 0,0
16.12.2017 06:00:00 4,5 3,6 3,2 9,7 11,0 5 3 12 6 W 1017,3 10 0 0,8
16.12.2017 05:00:00 4,9 4,0 3,9 9,7 11,0 4 2 11 6 - 1016,8 10 0 0,2
16.12.2017 04:00:00 5,1 4,4 4,2 9,7 11,0 8 4 16 9 SSW 1016,5 55 0 0,0
16.12.2017 03:00:00 5,1 4,4 3,5 9,8 11,0 10 5 16 9 WSW 1016,1 11 0 0,2
16.12.2017 02:00:00 4,2 3,6 0,8 9,8 11,0 2 1 13 7 S 1015,4 43 0 0,0
16.12.2017 01:00:00 5,0 4,0 3,1 9,8 11,0 4 2 13 7 - 1015,2 10 0 0,2
16.12.2017 00:00:00 5,5 3,8 4,0 9,9 11,0 11 6 28 15 W 1015,0 37 0 2,0
15.12.2017 23:00:00 5,5 3,8 4,0 9,9 11,0 15 8 23 13 SW 1014,1 10 0 0,0
15.12.2017 22:00:00 6,1 4,4 5,0 9,9 11,0 16 9 29 16 W 1013,6 16 0 0,2
15.12.2017 21:00:00 5,9 4,5 4,9 9,8 11,0 16 8 32 17 SW 1012,9 57 0 0,8
15.12.2017 20:00:00 6,1 4,7 5,0 9,9 11,0 16 9 29 16 WSW 1012,5 7 0 2,0
15.12.2017 19:00:00 5,9 4,4 4,8 9,9 11,0 20 11 48 26 WSW 1011,4 60 0 0,6
15.12.2017 18:00:00 6,9 5,7 5,6 9,8 11,0 18 10 27 15 SW 1010,4 43 0 0,5
15.12.2017 17:00:00 6,8 5,6 6,2 9,8 11,0 9 5 31 17 W 1010,3 20 0 2,6
15.12.2017 16:00:00 7,2 5,3 6,0 9,7 11,0 19 10 40 22 WSW 1009,4 20 4 1,4
15.12.2017 15:00:00 7,3 5,1 6,4 9,7 11,1 24 13 42 23 WSW 1009,3 14 8 0,4
15.12.2017 14:00:00 8,6 5,9 6,6 9,6 11,0 17 9 31 17 SW 1009,6 20 29 0,6
15.12.2017 13:00:00 7,1 4,4 6,4 9,7 11,1 23 13 37 20 SW 1010,4 13 27 0,0
15.12.2017 12:00:00 8,0 5,8 6,0 9,7 11,0 16 9 32 17 WSW 1010,9 52 5 1,6
15.12.2017 11:00:00 6,5 4,7 5,2 9,7 11,1 12 7 24 13 SW 1011,5 26 18 0,2
15.12.2017 10:00:00 5,7 4,3 4,8 9,7 11,1 13 7 32 17 SW 1011,3 51 0 0,2
15.12.2017 09:00:00 5,5 3,8 4,6 9,7 11,0 14 8 32 17 SW 1010,6 43 0 0,8
15.12.2017 08:00:00 5,8 4,1 5,0 9,7 11,0 18 10 36 19 WSW 1010,5 10 0 0,4
15.12.2017 07:00:00 6,3 4,8 5,5 9,8 11,1 20 11 34 18 WSW 1010,1 10 0 2,4
15.12.2017 06:00:00 6,7 5,8 6,3 9,8 11,1 12 6 37 20 NW 1009,7 8 0 5,3
15.12.2017 05:00:00 7,6 6,4 7,1 9,8 11,1 26 14 57 31 NW 1008,9 3,5 0 4,0
15.12.2017 04:00:00 10,1 6,4 8,4 9,8 11,1 22 12 55 30 W 1008,3 10 0 0,2
15.12.2017 03:00:00 10,3 7,0 8,4 9,8 11,1 28 15 55 30 W 1008,4 10 0 0,8
15.12.2017 02:00:00 10,3 7,9 8,4 9,8 11,1 26 14 45 24 WSW 1009,6 10 0 0,0
15.12.2017 01:00:00 10,3 8,4 9,2 9,8 11,1 31 17 59 32 W 1010,5 10 0 0,4
15.12.2017 00:00:00 10,3 8,4 8,8 9,8 11,1 24 13 61 33 W 1010,8 9 0 0,2
14.12.2017 23:00:00 10,0 7,9 8,8 9,7 11,1 21 11 52 28 WSW 1010,6 10 0 0,3
14.12.2017 22:00:00 10,0 8,6 9,1 9,7 11,1 39 21 65 35 WNW 1010,7 3,2 0 2,2
14.12.2017 21:00:00 10,7 9,9 10,2 9,6 11,1 27 15 43 23 W 1010,9 5 0 1,2
14.12.2017 20:00:00 10,7 9,9 10,1 9,6 11,1 22 12 48 26 W 1011,2 4,2 0 1,8
14.12.2017 19:00:00 11,1 9,8 10,4 9,6 11,1 26 14 37 20 WSW 1011,3 5 0 0,6
14.12.2017 18:00:00 12,0 9,2 11,3 9,5 11,1 21 11 33 18 WSW 1011,7 60 0 0,0
14.12.2017 17:00:00 11,8 9,2 11,1 9,5 11,1 21 11 45 25 WSW 1012,4 60 0 0,0
14.12.2017 16:00:00 12,3 9,1 11,7 9,4 11,1 24 13 39 21 W 1012,6 10 0 0,0
14.12.2017 15:00:00 12,2 9,0 11,5 9,4 11,1 23 13 37 20 W 1013,0 13 0 0,0
14.12.2017 14:00:00 12,7 8,8 12,7 9,3 11,1 21 11 38 20 WNW 1013,7 10 17 0,0
14.12.2017 13:00:00 13,6 8,2 13,2 9,2 11,1 18 10 36 20 W 1013,8 56 17 0,0
14.12.2017 12:00:00 12,7 7,8 11,8 9,2 11,1 21 11 33 18 W 1015,0 55 1 0,0
14.12.2017 11:00:00 11,9 7,2 10,4 9,2 11,1 16 9 34 18 WSW 1016,4 10 21 0,0
14.12.2017 10:00:00 10,9 7,8 9,5 9,2 11,1 8 5 25 13 WSW 1016,9 58 0 0,0
14.12.2017 09:00:00 10,9 7,6 9,1 9,1 11,1 18 10 42 23 SW 1016,9 10 0 0,2
14.12.2017 08:00:00 11,0 7,9 9,5 9,1 11,1 24 13 50 27 SW 1016,6 10 0 0,6
14.12.2017 07:00:00 10,8 8,9 9,5 9,1 11,1 16 8 24 13 SW 1017,0 33 0 0,0
14.12.2017 06:00:00 10,3 9,2 9,6 9,0 11,1 15 8 33 18 WSW 1017,0 10 0 0,2
14.12.2017 05:00:00 10,4 9,0 9,7 9,0 11,2 26 14 43 23 W 1017,5 10 0 0,4
14.12.2017 04:00:00 10,6 9,5 9,8 8,9 11,1 19 11 30 16 WSW 1017,4 14 0 0,6
14.12.2017 03:00:00 10,3 9,5 9,8 8,9 11,2 15 8 27 14 W 1017,2 10 0 0,8
14.12.2017 02:00:00 10,5 9,9 10,1 8,8 11,2 17 9 36 20 W 1017,9 2,8 0 1,6
14.12.2017 01:00:00 11,2 9,9 10,5 8,8 11,2 24 13 45 25 W 1017,8 10 0 0,4
14.12.2017 00:00:00 12,1 9,7 10,9 8,7 11,2 24 13 53 29 W 1017,6 10 0 0,0
13.12.2017 23:00:00 13,5 9,2 12,9 8,7 11,2 30 16 57 31 W 1016,9 59 0 0,0
13.12.2017 22:00:00 14,5 8,2 12,6 8,7 11,2 30 16 51 27 W 1016,2 60 0 0,0
13.12.2017 21:00:00 13,5 7,3 12,2 8,7 11,2 24 13 40 21 W 1016,4 60 0 0,0
13.12.2017 20:00:00 13,2 6,5 11,6 8,6 11,2 25 14 55 30 W 1016,5 60 0 0,0
13.12.2017 19:00:00 13,3 5,4 10,6 8,6 11,2 29 16 51 28 W 1016,4 18 0 0,0
13.12.2017 18:00:00 12,8 2,9 11,5 8,5 11,2 15 8 24 13 W 1016,3 10 0 0,0
13.12.2017 17:00:00 12,9 3,3 11,8 8,5 11,2 15 8 26 14 WSW 1016,3 10 0 0,0
13.12.2017 16:00:00 12,9 5,1 12,5 8,5 11,2 13 7 31 17 WSW 1016,7 10 0 0,0
13.12.2017 15:00:00 13,0 4,9 12,8 8,4 11,2 21 11 33 18 W 1017,5 10 0 0,0
13.12.2017 14:00:00 12,9 5,3 12,8 8,5 11,2 20 11 29 16 W 1018,2 58 0 0,0
13.12.2017 13:00:00 12,0 6,1 11,0 8,5 11,2 11 6 19 11 W 1019,1 57 0 0,0
13.12.2017 12:00:00 9,6 4,6 9,0 8,5 11,2 5 3 11 6 WSW 1020,3 58 0 0,0
13.12.2017 11:00:00 7,6 2,9 5,4 8,5 11,2 5 3 11 6 S 1020,8 60 0 0,0
13.12.2017 10:00:00 4,6 -0,2 3,3 8,6 11,2 4 2 8 5 SSE 1021,3 60 0 0,0
13.12.2017 09:00:00 3,4 -0,6 2,2 8,7 11,2 8 5 17 9 SE 1021,1 60 0 0,0
13.12.2017 08:00:00 2,9 -1,3 1,4 8,8 11,3 10 5 17 9 SSE 1021,0 60 0 0,0
13.12.2017 07:00:00 1,9 -1,9 0,0 8,8 11,2 11 6 15 8 SE 1021,2 60 0 0,0
13.12.2017 06:00:00 1,4 -2,2 0,1 8,9 11,2 6 4 13 7 SE 1021,4 60 0 0,0
13.12.2017 05:00:00 1,4 -2,0 -0,9 9,0 11,2 8 4 12 6 ESE 1022,0 10 0 0,0
13.12.2017 04:00:00 1,4 -2,2 -0,2 9,0 11,3 8 4 12 6 ESE 1021,9 10 0 0,0
13.12.2017 03:00:00 1,3 -1,6 -0,2 9,1 11,3 10 6 13 7 SE 1021,8 56 0 0,0
13.12.2017 02:00:00 1,4 -1,2 -0,3 9,1 11,3 9 5 11 6 SE 1022,7 40 0 0,0
13.12.2017 01:00:00 1,8 -0,8 0,3 9,2 11,3 9 5 11 6 SE 1022,7 31 0 0,0
13.12.2017 00:00:00 2,6 -0,3 1,7 9,2 11,3 8 5 10 6 SE 1023,3 24 0 0,0
12.12.2017 23:00:00 2,6 -0,3 0,0 9,3 11,3 9 5 11 6 ESE 1022,7 28 0 0,0
12.12.2017 22:00:00 2,8 -0,1 0,1 9,3 11,3 4 2 7 4 SE 1022,5 31 0 0,0
12.12.2017 21:00:00 3,3 0,7 0,8 9,3 11,3 5 3 10 5 SE 1021,4 10 0 0,0
12.12.2017 20:00:00 4,0 1,2 -0,1 9,2 11,3 5 3 10 5 SE 1021,6 10 0 0,0
12.12.2017 19:00:00 3,7 1,6 -0,5 9,2 11,3 2 1 6 4 ESE 1021,0 46 0 0,0
12.12.2017 18:00:00 5,9 1,6 0,6 9,1 11,3 4 2 8 5 WSW 1020,0 10 1 0,0
12.12.2017 17:00:00 8,5 1,6 8,7 9,0 11,3 6 3 14 8 W 1019,2 60 60 0,0
12.12.2017 16:00:00 9,4 1,5 9,9 8,9 11,3 8 5 16 9 W 1018,3 47 55 0,0
12.12.2017 15:00:00 10,1 1,2 9,5 8,9 11,3 5 3 16 9 WNW 1018,0 50 53 0,0
12.12.2017 14:00:00 9,0 0,7 9,8 8,9 11,3 9 5 18 10 WSW 1017,8 60 44 0,0
12.12.2017 13:00:00 9,6 2,7 12,9 8,9 11,3 6 3 15 8 WSW 1017,5 56 60 0,0
12.12.2017 12:00:00 8,5 3,5 11,4 8,9 11,3 8 4 14 8 W 1017,7 54 60 0,0
12.12.2017 11:00:00 7,1 3,3 8,2 9,0 11,3 6 3 10 5 SW 1017,2 52 60 0,0
12.12.2017 10:00:00 5,1 2,8 2,1 9,0 11,3 3 1 5 3 SSE 1016,4 59 60 0,0
12.12.2017 09:00:00 2,8 1,9 -0,3 9,1 11,3 4 2 10 5 S 1015,6 20 5 0,0
12.12.2017 08:00:00 2,9 1,9 0,9 9,1 11,3 5 3 23 13 SSW 1014,7 10 0 0,0
12.12.2017 07:00:00 4,3 3,7 4,0 9,2 11,3 10 6 27 15 WSW 1013,3 60 0 0,2
12.12.2017 06:00:00 4,2 3,5 3,8 9,2 11,3 18 10 27 15 W 1012,0 20 0 0,0
12.12.2017 05:00:00 4,1 3,4 3,6 9,3 11,3 21 11 32 17 W 1010,1 20 0 1,0
12.12.2017 04:00:00 4,2 3,0 3,7 9,3 11,3 20 11 36 20 WSW 1008,7 20 0 0,2
12.12.2017 03:00:00 4,1 2,9 3,5 9,4 11,3 14 8 58 32 WSW 1007,4 20 0 2,8
12.12.2017 02:00:00 5,7 3,2 4,6 9,4 11,3 34 18 52 28 W 1006,3 18 0 0,2
12.12.2017 01:00:00 6,1 3,1 4,1 9,5 11,3 21 11 44 24 WSW 1005,6 12 0 0,2
12.12.2017 00:00:00 5,9 2,9 4,2 9,5 11,4 19 10 32 17 W 1004,4 57 0 0,0
11.12.2017 23:00:00 5,5 3,3 4,1 9,5 11,4 11 6 62 33 SSW 1003,5 60 0 0,4
11.12.2017 22:00:00 6,5 3,8 4,6 9,6 11,4 16 9 53 29 W 1002,3 10 0 0,4
11.12.2017 21:00:00 6,3 4,3 5,3 9,6 11,4 22 12 59 32 W 1001,0 10 0 0,2
11.12.2017 20:00:00 6,4 4,1 5,3 9,6 11,4 29 16 61 33 W 999,4 10 0 0,4
11.12.2017 19:00:00 7,7 4,5 6,1 9,6 11,4 22 12 49 27 W 997,3 10 0 0,2
11.12.2017 18:00:00 8,3 4,1 7,0 9,5 11,4 22 12 35 19 W 995,3 60 0 0,0
11.12.2017 17:00:00 8,5 5,1 7,3 9,5 11,4 20 11 45 24 WSW 993,8 25 8 0,0
11.12.2017 16:00:00 9,4 4,4 8,7 9,5 11,4 23 13 46 25 W 991,9 58 5 0,0
11.12.2017 15:00:00 11,0 3,0 10,6 9,5 11,4 29 16 52 28 W 990,5 10 56 0,0
11.12.2017 14:00:00 11,3 3,3 11,4 9,5 11,4 31 17 54 29 W 990,4 10 60 0,0
11.12.2017 13:00:00 10,4 4,7 7,7 9,5 11,4 23 13 39 21 W 990,4 59 26 0,0
11.12.2017 12:00:00 7,9 5,9 6,8 9,5 11,4 8 5 17 9 SW 990,6 60 0 0,0
11.12.2017 11:00:00 7,5 5,6 6,7 9,5 11,4 9 5 22 12 SW 990,0 10 0 0,4
11.12.2017 10:00:00 7,6 5,7 6,5 9,5 11,4 13 7 25 13 W 989,8 49 0 0,4
11.12.2017 09:00:00 7,3 5,8 6,5 9,5 11,4 13 7 32 18 WSW 988,5 13 0 1,7
11.12.2017 08:00:00 7,8 6,1 6,9 9,5 11,4 23 12 38 21 W 987,6 23 0 0,8
11.12.2017 07:00:00 8,2 6,8 7,5 9,5 11,4 26 14 46 25 W 986,6 10 0 0,4
11.12.2017 06:00:00 8,7 7,3 8,0 9,5 11,4 21 11 41 22 W 986,1 10 0 1,6
11.12.2017 05:00:00 9,2 8,4 8,8 9,5 11,4 23 13 54 29 W 985,1 7 0 2,6
11.12.2017 04:00:00 9,8 8,4 9,0 9,5 11,4 37 20 64 35 WNW 984,0 10 0 0,2
11.12.2017 03:00:00 11,1 9,7 9,3 9,5 11,4 21 12 39 21 NNW 983,0 43 0 0,0

tt = Température de l'air
td = dewpoint
tt 5cm = Température de l'air 5cm
tt -20cm = Température de l'air -20cm
tt -100cm = Température de l'air -100cm
ff = Vitesse du vent
fx = gusts
dd = Direction du vent
ppp = reduced air pressure
vv = visibility
sd = Ensoleillement
rr = Quantités de précipitations

stations d'obs. à proximité